Location: York
(31.8935°S, 116.7682°E)
Time: 14:38:42
(UTC+08:00)

CAS-4A - Visible Passes

Search period start: 06 December 2022 00:00
Search period end: 16 December 2022 00:00
Orbit: 517 x 534 km, 43.0° (Epoch: 05 December)

Date Brightness Start Highest point End Pass type
(mag) Time Alt. Az. Time Alt. Az. Time Alt. Az.
06 Dec ? 20:45:38 10° SW 20:48:30 18° S 20:51:22 10° SE visible
06 Dec ? 22:25:11 10° SW 22:26:58 23° SW 22:26:58 23° SW visible
07 Dec ? 20:31:43 10° SW 20:34:42 19° S 20:37:41 10° ESE visible
07 Dec ? 22:11:13 10° SW 22:13:25 29° SW 22:13:25 29° SW visible
08 Dec ? 20:17:46 10° SW 20:20:53 21° SSE 20:23:59 10° ESE visible
08 Dec ? 21:57:16 10° SW 21:59:52 37° SW 21:59:52 37° SW visible
09 Dec ? 20:03:48 10° SW 20:07:03 23° SSE 20:10:18 10° ESE visible
09 Dec ? 21:43:19 10° WSW 21:46:21 49° SW 21:46:21 49° SW visible
10 Dec ? 19:49:49 10° SW 19:53:12 25° SSE 19:56:34 10° ESE visible
10 Dec ? 21:29:23 10° WSW 21:32:51 63° WSW 21:32:51 63° WSW visible
11 Dec ? 19:35:49 10° SW 19:39:20 28° SSE 19:42:50 10° E visible
11 Dec ? 21:15:27 10° WSW 21:19:23 66° NW 21:19:23 66° NW visible
12 Dec ? 21:01:32 10° WSW 21:05:29 52° NW 21:05:58 49° N visible
13 Dec ? 20:47:40 10° WSW 20:51:29 41° NW 20:52:35 33° N visible
14 Dec ? 20:33:49 10° WSW 20:37:28 33° NW 20:39:16 22° N visible
15 Dec ? 20:20:01 10° W 20:23:26 26° NW 20:25:59 14° N visible
